Simultaneous Nadir Overpasses (SNOs) Predictions

Prediction of SNOs between AQUA and METOP-A Satellite Orbit:

Table of predicted SNOs for the next 14.0 days since TLE Epoch: 3/16/2012
Index Date (AQUA) Time (AQUA) AQUA Lat,Lon Date (METOP-A) Time (METOP-A) METOP-A Lat,Lon Distance(km) Time Diff (sec)
1 03/17/2012 14:35:16 -73.74, 135.52 03/17/2012 14:34:27 -73.75, 135.44 2.69 49
2 03/17/2012 15:24:45 73.81, -57.00 03/17/2012 15:25:05 73.83, -57.04 2.29 20
3 03/20/2012 10:09:47 -73.74,-158.10 03/20/2012 10:08:49 -73.75,-158.16 1.79 58
4 03/20/2012 10:59:16 73.81, 9.38 03/20/2012 10:59:27 73.83, 9.37 1.94 11
5 03/20/2012 11:48:51 -74.28, 175.95 03/20/2012 11:50:00 -74.27, 177.78 55.04 69
6 03/23/2012 05:44:26 -73.69, -91.64 03/23/2012 05:43:13 -73.63, -92.02 13.19 73
7 03/23/2012 06:33:56 73.80, 75.74 03/23/2012 06:33:49 73.81, 75.75 1.05 7
8 03/23/2012 07:23:23 -73.85,-116.73 03/23/2012 07:24:30 -73.86,-116.82 2.75 67
9 03/26/2012 02:08:44 73.79, 142.06 03/26/2012 02:08:10 73.79, 142.10 1.27 34
10 03/26/2012 02:58:11 -73.84, -50.39 03/26/2012 02:58:51 -73.83, -50.47 2.38 40
11 03/28/2012 21:43:41 73.73,-151.53 03/28/2012 21:42:32 73.75,-151.57 3.09 69
12 03/28/2012 22:33:09 -73.81, 15.92 03/28/2012 22:33:13 -73.80, 15.86 2.64 4




NCC Satellite Simultaneous Nadir Overpasses (SNOs) Prediction Service
